| time (UTC) | temp F | wind direction | speed knots | gust knots | rain 1hr in | rain 24hr in | rain mn in | humidity % | barometer mb |
| 20260506193039 | 82 | 182 | 0.0 | 2.6 | 0.00 | 0.00 | 0.00 | 84 | 1007.6 |
| 20260506191539 | 83 | 204 | 0.0 | 0.9 | 0.00 | 0.00 | 0.00 | 84 | 1007.8 |
| 20260506190039 | 83 | 86 | 0.0 | 0.0 | 0.00 | 0.00 | 0.00 | 84 | 1008.0 |
| 20260506184536 | 82 | 141 | 0.0 | 0.9 | 0.00 | 0.00 | 0.00 | 85 | 1008.1 |
| 20260506183038 | 82 | 152 | 0.0 | 0.9 | 0.00 | 0.00 | 0.00 | 85 | 1008.2 |
| 20260506181536 | 82 | 152 | 0.0 | 0.9 | 0.00 | 0.00 | 0.00 | 84 | 1008.5 |
| 20260506180033 | 82 | 154 | 0.0 | 0.9 | 0.00 | 0.00 | 0.00 | 83 | 1008.5 |
| 20260506174532 | 82 | 198 | 0.0 | 1.7 | 0.00 | 0.00 | 0.00 | 84 | 1008.5 |
| 20260506173030 | 82 | 204 | 0.0 | 0.9 | 0.00 | 0.00 | 0.00 | 84 | 1008.8 |
| 20260506171539 | 82 | 146 | 0.0 | 3.5 | 0.00 | 0.00 | 0.00 | 84 | 1008.8 |
| 20260506170027 | 81 | 192 | 0.0 | 1.7 | 0.00 | 0.00 | 0.00 | 86 | 1009.1 |
| 20260506164524 | 80 | 150 | 0.0 | 0.0 | 0.00 | 0.00 | 0.00 | 87 | 1009.0 |
| 20260506163022 | 80 | 123 | 0.0 | 0.0 | 0.00 | 0.00 | 0.00 | 89 | 1008.9 |
| 20260506161520 | 79 | 92 | 0.0 | 0.9 | 0.00 | 0.00 | 0.00 | 89 | 1008.8 |
| 20260506160031 | 79 | 127 | 0.0 | 0.9 | 0.00 | 0.00 | 0.00 | 90 | 1008.9 |
| 20260506154513 | 79 | 162 | 0.0 | 0.9 | 0.00 | 0.00 | 0.00 | 90 | 1008.5 |
| 20260506153009 | 79 | 171 | 0.0 | 0.0 | 0.00 | 0.00 | 0.00 | 90 | 1008.4 |
| 20260506151508 | 79 | 98 | 0.0 | 0.9 | 0.00 | 0.00 | 0.00 | 91 | 1008.2 |
| 20260506150017 | 79 | 142 | 0.0 | 0.0 | 0.00 | 0.00 | 0.00 | 91 | 1008.0 |
| 20260506144506 | 78 | 142 | 0.0 | 0.0 | 0.00 | 0.00 | 0.00 | 91 | 1007.8 |
| 20260506143027 | 78 | 142 | 0.0 | 0.0 | 0.00 | 0.00 | 0.00 | 91 | 1007.8 |
| 20260506141505 | 78 | 141 | 0.0 | 0.0 | 0.00 | 0.00 | 0.00 | 91 | 1008.0 |
| 20260506140007 | 78 | 73 | 0.0 | 0.0 | 0.00 | 0.00 | 0.00 | 92 | 1008.1 |
| 20260506134502 | 78 | 73 | 0.0 | 0.0 | 0.00 | 0.00 | 0.00 | 92 | 1008.0 |
| 20260506133059 | 78 | 73 | 0.0 | 0.0 | 0.00 | 0.00 | 0.00 | 93 | 1008.2 |
| 20260506131559 | 77 | 69 | 0.0 | 0.0 | 0.00 | 0.00 | 0.00 | 93 | 1008.2 |
| 20260506130118 | 77 | 69 | 0.0 | 0.0 | 0.00 | 0.00 | 0.00 | 93 | 1008.1 |
| 20260506124552 | 77 | 55 | 0.0 | 0.0 | 0.00 | 0.00 | 0.00 | 93 | 1008.0 |
| 20260506123050 | 77 | 50 | 0.0 | 0.0 | 0.00 | 0.00 | 0.00 | 93 | 1007.9 |
| 20260506121548 | 77 | 125 | 0.0 | 0.0 | 0.00 | 0.00 | 0.00 | 93 | 1007.8 |
| 20260506120047 | 77 | 124 | 0.0 | 0.0 | 0.00 | 0.00 | 0.00 | 94 | 1007.6 |
| 20260506114548 | 76 | 128 | 0.0 | 0.0 | 0.00 | 0.00 | 0.00 | 94 | 1007.3 |
| 20260506113047 | 76 | 102 | 0.0 | 0.0 | 0.00 | 0.00 | 0.00 | 94 | 1007.1 |
| 20260506111545 | 76 | 192 | 0.0 | 0.0 | 0.00 | 0.00 | 0.00 | 93 | 1006.9 |
| 20260506110051 | 76 | 217 | 0.0 | 0.0 | 0.00 | 0.00 | 0.00 | 93 | 1006.9 |
| 20260506104544 | 76 | 225 | 0.0 | 0.0 | 0.00 | 0.00 | 0.00 | 93 | 1007.0 |
| 20260506103047 | 76 | 225 | 0.0 | 0.0 | 0.00 | 0.00 | 0.00 | 93 | 1007.0 |
| 20260506101553 | 76 | 211 | 0.0 | 0.0 | 0.00 | 0.00 | 0.00 | 92 | 1006.9 |
| 20260506100043 | 76 | 127 | 0.0 | 0.0 | 0.00 | 0.00 | 0.00 | 92 | 1006.8 |
| 20260506094552 | 76 | 202 | 0.0 | 0.0 | 0.00 | 0.00 | 0.00 | 92 | 1006.6 |
| 20260506093044 | 76 | 202 | 0.0 | 0.0 | 0.00 | 0.00 | 0.00 | 92 | 1006.8 |
| 20260506091539 | 77 | 202 | 0.0 | 0.0 | 0.00 | 0.00 | 0.00 | 92 | 1006.8 |
| 20260506090040 | 77 | 202 | 0.0 | 0.0 | 0.00 | 0.00 | 0.00 | 92 | 1006.7 |
| 20260506084538 | 77 | 130 | 0.0 | 0.9 | 0.00 | 0.00 | 0.00 | 91 | 1006.9 |
| 20260506083036 | 77 | 163 | 0.0 | 0.9 | 0.00 | 0.00 | 0.00 | 91 | 1007.0 |
| 20260506081534 | 77 | 121 | 0.0 | 0.9 | 0.00 | 0.00 | 0.00 | 91 | 1007.1 |
| 20260506073029 | 77 | 100 | 0.0 | 3.5 | 0.00 | 0.00 | 0.00 | 91 | 1007.7 |
| 20260506071528 | 77 | 156 | 0.0 | 2.6 | 0.00 | 0.00 | 0.00 | 91 | 1007.8 |
| 20260506061525 | 77 | 182 | 0.0 | 0.9 | 0.00 | 0.00 | 0.00 | 90 | 1007.7 |
| 20260506044524 | 77 | 173 | 0.0 | 1.7 | 0.00 | 0.00 | 0.00 | 89 | 1007.7 |
| 20260506043020 | 77 | 182 | 0.0 | 1.7 | 0.00 | 0.00 | 0.00 | 89 | 1007.7 |
| 20260506041526 | 77 | 146 | 0.0 | 3.5 | 0.00 | 0.00 | 0.00 | 89 | 1007.7 |
| 20260506040017 | 77 | 234 | 0.0 | 1.7 | 0.00 | 0.00 | 0.00 | 89 | 1007.7 |
| 20260506034517 | 77 | 172 | 0.0 | 1.7 | 0.00 | 0.00 | 0.00 | 89 | 1007.7 |
| 20260506033016 | 77 | 173 | 0.0 | 1.7 | 0.00 | 0.00 | 0.00 | 89 | 1007.5 |
| 20260506031522 | 77 | 114 | 0.0 | 1.7 | 0.00 | 0.00 | 0.00 | 89 | 1007.5 |
| 20260506030020 | 77 | 144 | 0.0 | 1.7 | 0.00 | 0.00 | 0.00 | 90 | 1007.3 |
| 20260506024515 | 77 | 150 | 0.0 | 1.7 | 0.00 | 0.00 | 0.00 | 90 | 1007.2 |
| 20260506023015 | 77 | 235 | 0.0 | 0.9 | 0.00 | 0.00 | 0.00 | 90 | 1006.9 |
| 20260506021514 | 77 | 148 | 0.0 | 0.9 | 0.00 | 0.00 | 0.00 | 89 | 1006.7 |
| 20260506020017 | 77 | 174 | 0.0 | 1.7 | 0.00 | 0.00 | 0.00 | 89 | 1006.5 |
| 20260506014518 | 78 | 196 | 0.0 | 1.7 | 0.00 | 0.00 | 0.00 | 88 | 1006.3 |
| 20260506013023 | 78 | 142 | 0.0 | 2.6 | 0.00 | 0.00 | 0.00 | 87 | 1006.2 |
| 20260506011512 | 78 | 100 | 0.0 | 4.3 | 0.00 | 0.00 | 0.00 | 87 | 1006.0 |
| 20260506010015 | 78 | 131 | 0.9 | 2.6 | 0.00 | 0.00 | 0.00 | 86 | 1005.8 |
| 20260506004518 | 78 | 187 | 0.0 | 1.7 | 0.00 | 0.00 | 0.00 | 86 | 1005.6 |
| 20260506003012 | 79 | 162 | 0.9 | 2.6 | 0.00 | 0.00 | 0.00 | 86 | 1005.6 |
| 20260506001512 | 79 | 132 | 0.0 | 2.6 | 0.00 | 0.00 | 0.00 | 85 | 1005.5 |
| 20260506000016 | 79 | 139 | 0.9 | 4.3 | 0.00 | 0.00 | 0.00 | 85 | 1005.6 |
| 20260505234515 | 79 | 146 | 0.9 | 4.3 | 0.00 | 0.00 | 0.00 | 84 | 1005.4 |
| 20260505233009 | 79 | 229 | 0.0 | 3.5 | 0.00 | 0.00 | 0.00 | 84 | 1005.7 |
| 20260505231508 | 80 | 152 | 1.7 | 7.8 | 0.00 | 0.00 | 0.00 | 83 | 1005.6 |
| 20260505230014 | 80 | 168 | 0.9 | 4.3 | 0.00 | 0.00 | 0.00 | 82 | 1005.7 |
| 20260505224507 | 80 | 147 | 0.0 | 5.2 | 0.00 | 0.00 | 0.00 | 82 | 1005.6 |
| 20260505223008 | 80 | 140 | 1.7 | 6.1 | 0.00 | 0.00 | 0.00 | 82 | 1005.7 |
| 20260505221505 | 80 | 221 | 0.9 | 3.5 | 0.00 | 0.00 | 0.00 | 84 | 1005.8 |
| 20260505220013 | 80 | 114 | 1.7 | 9.6 | 0.00 | 0.00 | 0.00 | 84 | 1005.9 |
| 20260505214512 | 80 | 209 | 1.7 | 7.8 | 0.00 | 0.00 | 0.00 | 84 | 1006.0 |
| 20260505213001 | 80 | 176 | 1.7 | 7.8 | 0.00 | 0.00 | 0.00 | 83 | 1006.1 |
| 20260505211619 | 80 | 252 | 0.9 | 5.2 | 0.00 | 0.00 | 0.00 | 84 | 1006.2 |
| 20260505210107 | 80 | 140 | 0.9 | 7.8 | 0.00 | 0.00 | 0.00 | 84 | 1006.3 |
| 20260505204558 | 80 | 209 | 0.9 | 7.8 | 0.00 | 0.00 | 0.00 | 83 | 1006.6 |
| 20260505203055 | 80 | 96 | 0.0 | 5.2 | 0.00 | 0.00 | 0.00 | 84 | 1006.8 |
| 20260505201604 | 80 | 199 | 1.7 | 7.0 | 0.00 | 0.00 | 0.00 | 84 | 1007.1 |
| 20260505200052 | 80 | 146 | 0.9 | 7.8 | 0.00 | 0.00 | 0.00 | 84 | 1007.2 |
| 20260505194554 | 80 | 109 | 0.9 | 5.2 | 0.00 | 0.00 | 0.00 | 84 | 1007.3 |